QZS-4 (MICHIBIKI-4)

Last updated on Jan. 17, 2021, 6:29 a.m. UTC

1 42965U 17062A   21016.29744478 -.00000353  00000-0  00000-0 0  9999
2 42965  40.8298   8.8012 0751203 268.6053  81.6451  1.00299987 11974
UTC
Height (km)
Latitude
Longitude
Inclination
Orbital Period
UTC large
Height (km)
Speed (km/s)
/
Latitude / Longitude
Inclination (degrees)
Orbital Period (minutes)
Azimuth
Elevation
Range (km)
Doppler Factor
iOS Compass Heading
iOS Angle

Next 30 passes for location: Hong Kong

Rise time Rise Azimuth (degrees) Set time Set Azimuth (degrees) Duration Max altitude (degrees)

No matching passes for this satellites